Dati Storici

Data ora Umidita' aria (%) Temperatura aria (°C) Rad globale (W/m²) Gonioanemometro (°) Tacoanemometro (m/s) Pioggia (mm)
14-06-2020 05:30 97.7 % 16.274 -55.383 -0.001 0 0
14-06-2020 05:20 97.7 % 16.244 -58.967 0.972 0 0
14-06-2020 05:10 97.7 % 16.158 -61.208 0.346 0 0
14-06-2020 05:00 97.7 % 16.024 -51.976 -0.001 0 0
14-06-2020 04:50 97.7 % 16.036 -52.64 0.113 0 0
14-06-2020 04:40 97.7 % 16.142 -53.741 0 0 0
14-06-2020 04:30 97.7 % 16.064 -56.468 -0 0 0
14-06-2020 04:20 97.7 % 16.017 -80.481 1.999 0 0
14-06-2020 04:10 97.7 % 15.92 -64.337 1.17 0 0
14-06-2020 04:00 97.7 % 15.961 -57.824 10.324 0 0
14-06-2020 03:50 97.7 % 15.991 -48.443 0.714 0 0
14-06-2020 03:40 97.7 % 16.028 -48.461 0.367 0 0
14-06-2020 03:30 97.7 % 15.879 -52.665 0.187 0 0
14-06-2020 03:20 97.7 % 15.742 -50.832 0.347 0 0
14-06-2020 03:10 97.7 % 15.783 -40.44 0.786 0 0
14-06-2020 03:00 97.7 % 15.898 -53.384 3.259 0 0
14-06-2020 02:50 97.7 % 16.148 -54.625 3.081 0 0
14-06-2020 02:40 97.7 % 16.308 -48.233 0.723 0 0
14-06-2020 02:30 97.7 % 16.516 -50.223 0.681 0 0
14-06-2020 02:20 97.7 % 16.993 -66.039 4.421 0 0

I dati sono presentati in modo automatico a scopo informativo. In seguito a verifica i dati possono subire modifiche o essere invalidati e non riportati negli archivi definitivi.